Weather History for Greensboro, NC

Change the Weather History Date:

Sunday, November 3, 2013

  Actual Average Record
Temperature  
Mean Temperature 52 °F 54 °F  
Max Temperature 62 °F 65 °F 84 °F (1974)
Min Temperature 41 °F 43 °F 24 °F (1930)
Degree Days  
Heating Degree Days 13 11  
Month to date heating degree days 20 32  
Since 1 July heating degree days 196 265  
Cooling Degree Days 0 0  
Month to date cooling degree days 0 0  
Year to date cooling degree days 1381 1480  
Growing Degree Days 2 (Base 50)    
Moisture  
Dew Point 32 °F    
Average Humidity 50    
Maximum Humidity 70    
Minimum Humidity 30    
Precipitation  
Precipitation 0.00 in 0.11 in 0.89 in (1929)
Month to date precipitation 0.34 0.33  
Year to date precipitation 41.97 36.44  
Sea Level Pressure  
Sea Level Pressure 30.17 in    
Wind  
Wind Speed 6 mph (NNW)    
Max Wind Speed 17 mph    
Max Gust Speed 25 mph    
Visibility 10 miles    
Events      
T = Trace of Precipitation, MM = Missing Value Source: NWS Daily Summary

Daily Weather History Graph

Daily Weather History Graph

Search for Another Location

Airport:

Trip Planner

Search our weather history database for the weather conditions in past years. The results will help you decide how hot, cold, wet, or windy it might be!

Date:

Astronomy

Nov. 03, 2013 Rise Set
Actual Time 6:44 AM EST 5:21 PM EST
Civil Twilight 6:17 AM EST 5:48 PM EST
Nautical Twilight 5:47 AM EST 6:18 PM EST
Astronomical Twilight 5:17 AM EST 6:48 PM EST
Moon 6:46 AM EST (11/3) 5:36 PM EST (11/3)
Length of Visible Light 11h 30m
Length of Day
10h 36m
New Moon, 0% of the Moon is Illuminated
Nov 3
New Moon
Nov 10
First Quarter
Nov 17
Full
Nov 25
Last Quarter
Dec 2
New

Hourly Weather History & Observations

Time (EST) Temp. Windchill Dew Point Humidity Pressure Visibility Wind Dir Wind Speed Gust Speed Precip Events Conditions
12:54 AM 46.9 °F - 32.0 °F 56% 29.97 in 10.0 mi NW 3.5 mph - N/A   Clear
1:54 AM 46.9 °F - 32.0 °F 56% 29.98 in 10.0 mi NW 6.9 mph - N/A   Clear
1:54 AM 48.0 °F - 33.1 °F 56% 29.99 in 10.0 mi NW 6.9 mph - N/A   Clear
2:54 AM 48.0 °F - 33.1 °F 56% 30.00 in 10.0 mi NNW 4.6 mph - N/A   Clear
3:54 AM 43.0 °F 39.5 °F 33.1 °F 68% 30.03 in 10.0 mi WNW 5.8 mph - N/A   Clear
4:54 AM 42.1 °F 37.7 °F 33.1 °F 70% 30.06 in 10.0 mi WNW 6.9 mph - N/A   Clear
5:54 AM 42.1 °F - 33.1 °F 70% 30.09 in 10.0 mi Calm Calm - N/A   Clear
6:54 AM 44.1 °F 42.5 °F 33.1 °F 65% 30.12 in 10.0 mi NW 3.5 mph - N/A   Clear
7:54 AM 48.0 °F - 34.0 °F 58% 30.16 in 10.0 mi NNW 4.6 mph - N/A   Clear
8:54 AM 52.0 °F - 35.1 °F 53% 30.18 in 10.0 mi NNW 9.2 mph - N/A   Clear
9:54 AM 54.0 °F - 32.0 °F 43% 30.20 in 10.0 mi North 12.7 mph 21.9 mph N/A   Partly Cloudy
10:54 AM 57.0 °F - 33.1 °F 40% 30.21 in 10.0 mi Variable 5.8 mph - N/A   Partly Cloudy
11:54 AM 59.0 °F - 30.9 °F 35% 30.20 in 10.0 mi North 10.4 mph 18.4 mph N/A   Partly Cloudy
12:54 PM 62.1 °F - 30.9 °F 31% 30.19 in 10.0 mi NNE 9.2 mph - N/A   Partly Cloudy
1:54 PM 61.0 °F - 30.0 °F 31% 30.19 in 10.0 mi North 8.1 mph 16.1 mph N/A   Partly Cloudy
2:54 PM 60.1 °F - 30.9 °F 33% 30.19 in 10.0 mi North 4.6 mph - N/A   Partly Cloudy
3:54 PM 60.1 °F - 30.0 °F 32% 30.20 in 10.0 mi North 6.9 mph - N/A   Partly Cloudy
4:54 PM 57.9 °F - 30.0 °F 35% 30.22 in 10.0 mi North 3.5 mph - N/A   Clear
5:54 PM 54.0 °F - 30.9 °F 41% 30.25 in 10.0 mi NNE 4.6 mph - N/A   Clear
6:54 PM 51.1 °F - 32.0 °F 48% 30.28 in 10.0 mi North 4.6 mph - N/A   Clear
7:54 PM 48.9 °F - 32.0 °F 52% 30.31 in 10.0 mi Calm Calm - N/A   Clear
8:54 PM 48.0 °F - 32.0 °F 54% 30.33 in 10.0 mi North 3.5 mph - N/A   Clear
9:54 PM 46.0 °F 43.9 °F 32.0 °F 58% 30.35 in 10.0 mi North 4.6 mph - N/A   Clear
10:54 PM 45.0 °F 41.8 °F 30.9 °F 58% 30.36 in 10.0 mi NNE 5.8 mph - N/A   Clear